COSMOS 2545 (760)

Last updated on Oct. 30, 2020, 5:57 a.m. UTC

1 45358U 20018A   20303.45882822 -.00000085  00000-0  00000-0 0  9997
2 45358  64.8608  23.9528 0009948 239.8827 121.2968  2.13102729  4838
UTC
Height (km)
Latitude
Longitude
Inclination
Orbital Period
UTC large
Height (km)
Speed (km/s)
/
Latitude / Longitude
Inclination (degrees)
Orbital Period (minutes)
Azimuth
Elevation
Range (km)
Doppler Factor
iOS Compass Heading
iOS Angle

Next 30 passes for location: Hong Kong

Rise time Rise Azimuth (degrees) Set time Set Azimuth (degrees) Duration Max altitude (degrees)

No matching passes for this satellites